Charleston, WV

11:16 AM EST on February 25, 2017 (GMT -0500)
Yeager Airport

Weather History for KCRW - March, 2014

Change the Weather History Date:

Wednesday, March 26, 2014

  Actual Average Record
Temperature  
Mean Temperature 29 °F 49 °F  
Max Temperature 37 °F 60 °F 92 °F (1929)
Min Temperature 21 °F 38 °F 16 °F (1955)
Degree Days  
Heating Degree Days 36 16  
Month to date heating degree days 630 524  
Since 1 July heating degree days 4397 3978  
Cooling Degree Days 0 0  
Month to date cooling degree days 0 0  
Year to date cooling degree days 0 0  
Moisture  
Dew Point 12 °F    
Average Humidity 55    
Maximum Humidity 75    
Minimum Humidity 35    
Precipitation  
Precipitation T in 0.12 in 1.20 in (1913)
Month to date precipitation 1.92 3.32  
Year to date precipitation 8.98 9.51  
Snow  
Snow T in - - ()
Month to date snowfall 11.7  
Since 1 September snowfall 49.4  
Snow Depth 1.00 in    
Sea Level Pressure  
Sea Level Pressure 30.28 in    
Wind  
Wind Speed 6 mph (WNW)    
Max Wind Speed 21 mph    
Max Gust Speed 28 mph    
Visibility 9 miles    
Events Snow    
T = Trace of Precipitation, MM = Missing Value Source: NWS Daily Summary

Daily Weather History Graph

Daily Weather History Graph

Search for Another Location

Airport or City:

Trip Planner

Search our weather history database for the weather conditions in past years. The results will help you decide how hot, cold, wet, or windy it might be!

Date:

Astronomy

Mar. 26, 2014 Rise Set
Actual Time 7:20 AM EDT 7:43 PM EDT
Civil Twilight 6:54 AM EDT 8:10 PM EDT
Nautical Twilight 6:23 AM EDT 8:41 PM EDT
Astronomical Twilight 5:51 AM EDT 9:13 PM EDT
Moon 4:24 AM EDT (3/26) 3:24 PM EDT (3/26)
Length of Visible Light 13h 16m
Length of Day
12h 23m
Waning Crescent, 22% of the Moon is Illuminated
Mar 26
Waning Crescent
Mar 30
New
Apr 7
First Quarter
Apr 15
Full
Apr 22
Last Quarter

Hourly Weather History & Observations

Time (EDT) Temp. Windchill Dew Point Humidity Pressure Visibility Wind Dir Wind Speed Gust Speed Precip Events Conditions
12:54 AM 28.0 °F 18.1 °F 19.0 °F 69% 30.14 in 9.0 mi WNW 11.5 mph 27.6 mph 0.00 in Snow Light Snow
1:54 AM 27.0 °F 19.5 °F 18.0 °F 69% 30.16 in 9.0 mi West 6.9 mph - 0.00 in Snow Light Snow
2:54 AM 27.0 °F 15.6 °F 19.0 °F 72% 30.17 in 9.0 mi WNW 13.8 mph 19.6 mph 0.00 in Snow Light Snow
3:54 AM 26.1 °F 16.8 °F 17.1 °F 69% 30.17 in 9.0 mi West 9.2 mph - 0.00 in Snow Light Snow
4:07 AM 25.0 °F 12.2 °F 18.0 °F 75% 30.15 in 4.0 mi WNW 16.1 mph 27.6 mph 0.00 in Snow Light Snow
4:54 AM 24.1 °F 13.7 °F 17.1 °F 75% 30.20 in 4.0 mi NW 10.4 mph 19.6 mph 0.00 in Snow Light Snow
5:44 AM 23.0 °F 10.1 °F 12.9 °F 65% 30.19 in 9.0 mi NW 15.0 mph 23.0 mph 0.00 in   Mostly Cloudy
5:54 AM 23.0 °F 11.1 °F 10.9 °F 60% 30.23 in 10.0 mi NW 12.7 mph 24.2 mph 0.00 in   Mostly Cloudy
6:54 AM 21.9 °F 9.8 °F 8.1 °F 55% 30.26 in 10.0 mi WNW 12.7 mph 18.4 mph N/A   Partly Cloudy
7:54 AM 21.0 °F 12.4 °F 8.1 °F 57% 30.30 in 10.0 mi NW 6.9 mph - N/A   Partly Cloudy
8:54 AM 21.0 °F 9.9 °F 8.1 °F 57% 30.34 in 10.0 mi NNW 10.4 mph 23.0 mph N/A   Partly Cloudy
9:54 AM 23.0 °F 11.7 °F 8.1 °F 53% 30.36 in 10.0 mi NW 11.5 mph - N/A   Scattered Clouds
10:54 AM 26.1 °F 15.6 °F 10.0 °F 51% 30.37 in 10.0 mi WNW 11.5 mph - N/A   Scattered Clouds
11:54 AM 27.0 °F 18.0 °F 9.0 °F 47% 30.38 in 10.0 mi NW 9.2 mph 16.1 mph N/A   Scattered Clouds
12:54 PM 28.0 °F 20.0 °F 10.0 °F 47% 30.36 in 10.0 mi West 8.1 mph 21.9 mph 0.00 in   Scattered Clouds
1:54 PM 30.9 °F 23.5 °F 10.9 °F 43% 30.34 in 10.0 mi WNW 8.1 mph 20.7 mph N/A   Scattered Clouds
2:54 PM 34.0 °F 28.8 °F 10.9 °F 38% 30.33 in 10.0 mi NNW 5.8 mph 23.0 mph N/A   Scattered Clouds
3:54 PM 35.1 °F 28.6 °F 10.0 °F 35% 30.31 in 10.0 mi NW 8.1 mph 16.1 mph N/A   Scattered Clouds
4:54 PM 36.0 °F 30.3 °F 10.0 °F 34% 30.31 in 10.0 mi WNW 6.9 mph 17.3 mph N/A   Clear
5:54 PM 36.0 °F 31.1 °F 10.0 °F 34% 30.30 in 10.0 mi WSW 5.8 mph - N/A   Clear
6:54 PM 36.0 °F 33.3 °F 10.0 °F 34% 30.31 in 10.0 mi Variable 3.5 mph - N/A   Clear
7:54 PM 34.0 °F 29.8 °F 9.0 °F 35% 30.30 in 10.0 mi West 4.6 mph - N/A   Clear
8:54 PM 30.9 °F - 12.0 °F 46% 30.30 in 10.0 mi Calm Calm - N/A   Clear
9:54 PM 30.0 °F - 12.0 °F 47% 30.31 in 10.0 mi Calm Calm - N/A   Clear
10:54 PM 28.0 °F - 14.0 °F 56% 30.32 in 10.0 mi Calm Calm - N/A   Clear
11:54 PM 26.1 °F - 15.1 °F 63% 30.32 in 10.0 mi Calm Calm - N/A   Clear